| time (UTC) | temp F | wind direction | speed MPH | gust MPH | rain 1hr in | rain 24hr in | rain mn in | humidity % | barometer mb |
| 20260503183544 | 46 | 252 | 5.0 | 10.0 | 0.00 | 0.03 | 0.00 | 56 | 1002.9 |
| 20260503183052 | 46 | 276 | 4.0 | 8.0 | 0.00 | 0.03 | 0.00 | 55 | 1002.8 |
| 20260503182543 | 45 | 319 | 4.0 | 8.0 | 0.00 | 0.03 | 0.00 | 58 | 1002.9 |
| 20260503182042 | 46 | 303 | 3.0 | 8.0 | 0.00 | 0.03 | 0.00 | 55 | 1002.9 |
| 20260503181557 | 46 | 309 | 3.0 | 9.0 | 0.00 | 0.03 | 0.00 | 55 | 1002.9 |
| 20260503181044 | 46 | 300 | 4.0 | 9.0 | 0.00 | 0.03 | 0.00 | 54 | 1003.0 |
| 20260503180541 | 46 | 288 | 2.0 | 8.0 | 0.00 | 0.03 | 0.00 | 57 | 1003.0 |
| 20260503180047 | 45 | 323 | 2.0 | 12.0 | 0.00 | 0.03 | 0.00 | 59 | 1003.0 |
| 20260503175540 | 45 | 258 | 2.0 | 14.0 | 0.00 | 0.03 | 0.00 | 57 | 1003.0 |
| 20260503175039 | 45 | 10 | 6.0 | 14.0 | 0.00 | 0.03 | 0.00 | 56 | 1003.1 |
| 20260503174547 | 45 | 336 | 5.0 | 12.0 | 0.00 | 0.03 | 0.00 | 55 | 1003.1 |
| 20260503174039 | 45 | 23 | 4.0 | 8.0 | 0.00 | 0.03 | 0.00 | 55 | 1003.3 |
| 20260503173539 | 45 | 312 | 4.0 | 9.0 | 0.00 | 0.03 | 0.00 | 54 | 1003.2 |
| 20260503173041 | 45 | 322 | 2.0 | 9.0 | 0.00 | 0.03 | 0.00 | 57 | 1003.3 |
| 20260503172539 | 46 | 316 | 3.0 | 9.0 | 0.00 | 0.03 | 0.00 | 56 | 1003.2 |
| 20260503172038 | 46 | 315 | 4.0 | 9.0 | 0.00 | 0.03 | 0.00 | 55 | 1003.2 |
| 20260503171538 | 46 | 326 | 5.0 | 10.0 | 0.00 | 0.03 | 0.00 | 57 | 1003.2 |
| 20260503171038 | 46 | 283 | 3.0 | 10.0 | 0.00 | 0.03 | 0.00 | 56 | 1003.3 |
| 20260503170538 | 46 | 343 | 5.0 | 10.0 | 0.00 | 0.03 | 0.00 | 55 | 1003.3 |
| 20260503150522 | 45 | 22 | 4.0 | 14.0 | 0.00 | 0.03 | 0.00 | 59 | 1004.0 |
| 20260503131007 | 42 | 250 | 3.0 | 8.0 | 0.00 | 0.03 | 0.00 | 80 | 1004.7 |
| 20260503130505 | 42 | 355 | 3.0 | 5.0 | 0.00 | 0.04 | 0.00 | 82 | 1004.7 |
| 20260503120105 | 39 | 311 | 0.0 | 8.0 | 0.00 | 0.05 | 0.00 | 90 | 1004.9 |
| 20260503110547 | 36 | 113 | 0.0 | 1.0 | 0.00 | 0.05 | 0.00 | 96 | 1004.7 |
| 20260503081532 | 37 | 113 | 0.0 | 0.0 | 0.00 | 0.06 | 0.00 | 95 | 1005.1 |
| 20260503081035 | 37 | 113 | 0.0 | 0.0 | 0.00 | 0.06 | 0.00 | 95 | 1005.2 |
| 20260503080532 | 36 | 113 | 0.0 | 0.0 | 0.00 | 0.06 | 0.00 | 95 | 1005.2 |
| 20260503072531 | 36 | 113 | 0.0 | 0.0 | 0.00 | 0.06 | 0.00 | 94 | 1005.2 |
| 20260503072031 | 36 | 113 | 0.0 | 0.0 | 0.00 | 0.06 | 0.00 | 94 | 1005.2 |
| 20260503071532 | 36 | 113 | 0.0 | 0.0 | 0.00 | 0.06 | 0.00 | 94 | 1005.2 |
| 20260503071028 | 36 | 113 | 0.0 | 0.0 | 0.00 | 0.06 | 0.00 | 94 | 1005.2 |
| 20260503070532 | 36 | 113 | 0.0 | 0.0 | 0.00 | 0.06 | 0.00 | 94 | 1005.4 |
| 20260503055019 | 37 | 113 | 0.0 | 0.0 | 0.00 | 0.06 | 0.00 | 94 | 1005.6 |
| 20260503054531 | 37 | 113 | 0.0 | 0.0 | 0.00 | 0.06 | 0.00 | 94 | 1005.7 |
| 20260503054018 | 37 | 113 | 0.0 | 1.0 | 0.00 | 0.06 | 0.00 | 94 | 1005.7 |
| 20260503053518 | 37 | 113 | 0.0 | 1.0 | 0.00 | 0.06 | 0.00 | 94 | 1005.7 |
| 20260503053019 | 37 | 113 | 0.0 | 0.0 | 0.00 | 0.06 | 0.00 | 94 | 1005.7 |
| 20260503052519 | 37 | 113 | 0.0 | 0.0 | 0.00 | 0.06 | 0.00 | 94 | 1005.8 |
| 20260503052017 | 37 | 113 | 0.0 | 0.0 | 0.00 | 0.06 | 0.00 | 94 | 1005.8 |
| 20260503051514 | 37 | 113 | 0.0 | 1.0 | 0.00 | 0.06 | 0.00 | 94 | 1005.9 |
| 20260503051014 | 37 | 113 | 0.0 | 1.0 | 0.00 | 0.06 | 0.00 | 94 | 1006.0 |
| 20260503050514 | 37 | 113 | 0.0 | 1.0 | 0.00 | 0.06 | 0.00 | 94 | 1006.0 |
| 20260503050015 | 37 | 113 | 0.0 | 0.0 | 0.00 | 0.06 | 0.00 | 94 | 1006.0 |
| 20260503045518 | 37 | 113 | 0.0 | 0.0 | 0.00 | 0.06 | 0.00 | 94 | 1006.1 |
| 20260503045013 | 37 | 113 | 0.0 | 0.0 | 0.00 | 0.06 | 0.00 | 94 | 1006.2 |
| 20260503044513 | 37 | 113 | 0.0 | 0.0 | 0.00 | 0.06 | 0.00 | 94 | 1006.2 |
| 20260503044012 | 37 | 113 | 0.0 | 1.0 | 0.00 | 0.06 | 0.00 | 94 | 1006.2 |
| 20260503043511 | 37 | 113 | 0.0 | 1.0 | 0.00 | 0.06 | 0.00 | 94 | 1006.3 |
| 20260503043011 | 37 | 113 | 0.0 | 0.0 | 0.00 | 0.06 | 0.00 | 94 | 1006.2 |
| 20260503042514 | 37 | 113 | 0.0 | 1.0 | 0.00 | 0.06 | 0.00 | 94 | 1006.2 |
| 20260503042010 | 38 | 113 | 0.0 | 2.0 | 0.00 | 0.06 | 0.00 | 94 | 1006.3 |
| 20260503041509 | 37 | 113 | 1.0 | 2.0 | 0.00 | 0.06 | 0.00 | 94 | 1006.4 |
| 20260503041008 | 37 | 80 | 1.0 | 2.0 | 0.00 | 0.06 | 0.00 | 94 | 1006.4 |
| 20260503040512 | 38 | 346 | 0.0 | 1.0 | 0.00 | 0.06 | 0.06 | 94 | 1006.5 |
| 20260503040020 | 38 | 346 | 0.0 | 2.0 | 0.00 | 0.06 | 0.06 | 94 | 1006.4 |
| 20260503035506 | 38 | 346 | 1.0 | 2.0 | 0.00 | 0.06 | 0.06 | 94 | 1006.5 |
| 20260503035006 | 38 | 346 | 0.0 | 1.0 | 0.00 | 0.06 | 0.06 | 93 | 1006.6 |
| 20260503034509 | 38 | 346 | 0.0 | 1.0 | 0.00 | 0.06 | 0.06 | 93 | 1006.7 |
| 20260503034005 | 38 | 346 | 0.0 | 1.0 | 0.00 | 0.06 | 0.06 | 93 | 1006.6 |
| 20260503033506 | 38 | 346 | 0.0 | 1.0 | 0.00 | 0.06 | 0.06 | 93 | 1006.6 |
| 20260503033006 | 38 | 346 | 0.0 | 1.0 | 0.00 | 0.06 | 0.06 | 93 | 1006.7 |
| 20260503032505 | 38 | 346 | 0.0 | 1.0 | 0.00 | 0.06 | 0.06 | 93 | 1006.8 |
| 20260503032004 | 38 | 346 | 0.0 | 1.0 | 0.00 | 0.06 | 0.06 | 93 | 1006.8 |
| 20260503031607 | 38 | 346 | 0.0 | 1.0 | 0.01 | 0.06 | 0.06 | 93 | 1006.6 |
| 20260503031003 | 38 | 346 | 0.0 | 2.0 | 0.01 | 0.06 | 0.06 | 93 | 1006.7 |
| 20260503030504 | 38 | 346 | 0.0 | 2.0 | 0.01 | 0.06 | 0.06 | 93 | 1006.8 |
| 20260503030003 | 38 | 346 | 0.0 | 2.0 | 0.01 | 0.06 | 0.06 | 93 | 1006.8 |
| 20260503025503 | 38 | 346 | 0.0 | 2.0 | 0.01 | 0.06 | 0.06 | 92 | 1006.9 |
| 20260503025002 | 38 | 346 | 0.0 | 1.0 | 0.01 | 0.06 | 0.06 | 92 | 1006.8 |
| 20260503024502 | 38 | 346 | 0.0 | 0.0 | 0.01 | 0.06 | 0.06 | 92 | 1006.8 |
| 20260503024003 | 38 | 346 | 0.0 | 0.0 | 0.01 | 0.06 | 0.06 | 92 | 1006.8 |
| 20260503023502 | 38 | 346 | 0.0 | 0.0 | 0.01 | 0.06 | 0.06 | 92 | 1006.8 |
| 20260503023002 | 38 | 346 | 0.0 | 0.0 | 0.01 | 0.06 | 0.06 | 92 | 1006.9 |
| 20260503022502 | 38 | 346 | 0.0 | 1.0 | 0.01 | 0.06 | 0.06 | 92 | 1007.0 |
| 20260503022001 | 38 | 346 | 0.0 | 1.0 | 0.00 | 0.05 | 0.05 | 92 | 1007.0 |
| 20260503021501 | 38 | 346 | 0.0 | 1.0 | 0.00 | 0.05 | 0.05 | 92 | 1007.0 |
| 20260503021001 | 38 | 325 | 0.0 | 2.0 | 0.00 | 0.05 | 0.05 | 92 | 1007.0 |
| 20260503020602 | 38 | 325 | 0.0 | 2.0 | 0.00 | 0.05 | 0.05 | 92 | 1007.0 |
| 20260503020110 | 38 | 342 | 0.0 | 2.0 | 0.00 | 0.05 | 0.05 | 92 | 1007.1 |
| 20260503015603 | 38 | 288 | 0.0 | 4.0 | 0.00 | 0.05 | 0.05 | 92 | 1007.2 |
| 20260503015104 | 39 | 288 | 0.0 | 4.0 | 0.00 | 0.05 | 0.05 | 93 | 1007.2 |
| 20260503014559 | 39 | 311 | 0.0 | 2.0 | 0.00 | 0.05 | 0.05 | 93 | 1007.2 |
| 20260503014059 | 39 | 311 | 0.0 | 2.0 | 0.01 | 0.05 | 0.05 | 93 | 1007.2 |
| 20260503013559 | 39 | 292 | 0.0 | 1.0 | 0.01 | 0.05 | 0.05 | 93 | 1007.1 |
| 20260503013100 | 39 | 292 | 0.0 | 2.0 | 0.01 | 0.05 | 0.05 | 93 | 1007.2 |
| 20260503012602 | 39 | 292 | 0.0 | 2.0 | 0.01 | 0.05 | 0.05 | 92 | 1007.1 |
| 20260503012059 | 39 | 292 | 0.0 | 0.0 | 0.01 | 0.05 | 0.05 | 92 | 1007.1 |
| 20260503011608 | 39 | 292 | 0.0 | 0.0 | 0.01 | 0.05 | 0.05 | 92 | 1007.2 |
| 20260503011100 | 39 | 292 | 0.0 | 0.0 | 0.01 | 0.05 | 0.05 | 92 | 1007.1 |
| 20260503010557 | 39 | 292 | 0.0 | 1.0 | 0.01 | 0.05 | 0.05 | 91 | 1007.1 |
| 20260503005558 | 39 | 292 | 1.0 | 2.0 | 0.01 | 0.05 | 0.05 | 91 | 1007.0 |
| 20260503005057 | 39 | 292 | 0.0 | 0.0 | 0.01 | 0.05 | 0.05 | 90 | 1007.0 |
| 20260503004601 | 39 | 292 | 0.0 | 0.0 | 0.01 | 0.05 | 0.05 | 90 | 1006.8 |
| 20260503004055 | 39 | 292 | 0.0 | 0.0 | 0.00 | 0.04 | 0.04 | 90 | 1006.9 |
| 20260503003555 | 39 | 292 | 0.0 | 0.0 | 0.00 | 0.04 | 0.04 | 89 | 1006.8 |
| 20260503003101 | 39 | 292 | 0.0 | 0.0 | 0.00 | 0.04 | 0.04 | 90 | 1006.8 |
| 20260503002554 | 39 | 292 | 0.0 | 0.0 | 0.00 | 0.04 | 0.04 | 90 | 1006.8 |
| 20260503002057 | 39 | 292 | 0.0 | 1.0 | 0.00 | 0.04 | 0.04 | 89 | 1006.7 |
| 20260503001601 | 39 | 292 | 0.0 | 1.0 | 0.00 | 0.04 | 0.04 | 89 | 1006.6 |
| 20260503001053 | 39 | 292 | 0.0 | 2.0 | 0.00 | 0.04 | 0.04 | 88 | 1006.6 |
| 20260503000552 | 39 | 292 | 0.0 | 2.0 | 0.00 | 0.04 | 0.04 | 88 | 1006.6 |
| 20260503000052 | 39 | 292 | 0.0 | 3.0 | 0.00 | 0.04 | 0.04 | 89 | 1006.5 |
| 20260502235550 | 39 | 292 | 1.0 | 3.0 | 0.00 | 0.04 | 0.04 | 88 | 1006.5 |
| 20260502235051 | 39 | 292 | 0.0 | 3.0 | 0.00 | 0.04 | 0.04 | 89 | 1006.5 |
| 20260502234553 | 40 | 311 | 1.0 | 2.0 | 0.00 | 0.04 | 0.04 | 89 | 1006.4 |
| 20260502234050 | 40 | 317 | 0.0 | 2.0 | 0.01 | 0.04 | 0.04 | 89 | 1006.4 |
| 20260502233550 | 40 | 317 | 1.0 | 4.0 | 0.01 | 0.04 | 0.04 | 88 | 1006.4 |
| 20260502233050 | 40 | 249 | 1.0 | 4.0 | 0.01 | 0.04 | 0.04 | 88 | 1006.4 |
| 20260502232549 | 40 | 327 | 0.0 | 3.0 | 0.01 | 0.04 | 0.04 | 89 | 1006.4 |
| 20260502232049 | 40 | 292 | 1.0 | 3.0 | 0.01 | 0.04 | 0.04 | 89 | 1006.3 |
| 20260502231553 | 40 | 298 | 1.0 | 5.0 | 0.01 | 0.04 | 0.04 | 88 | 1006.3 |
| 20260502231052 | 40 | 315 | 2.0 | 5.0 | 0.01 | 0.04 | 0.04 | 88 | 1006.3 |
| 20260502230549 | 40 | 316 | 1.0 | 3.0 | 0.01 | 0.04 | 0.04 | 90 | 1006.3 |
| 20260502230049 | 40 | 298 | 1.0 | 3.0 | 0.01 | 0.04 | 0.04 | 88 | 1006.2 |
| 20260502225548 | 41 | 330 | 0.0 | 2.0 | 0.01 | 0.04 | 0.04 | 89 | 1006.0 |
| 20260502225048 | 41 | 329 | 1.0 | 2.0 | 0.01 | 0.04 | 0.04 | 89 | 1006.0 |
| 20260502224549 | 41 | 22 | 0.0 | 2.0 | 0.01 | 0.04 | 0.04 | 89 | 1005.9 |
| 20260502224048 | 41 | 40 | 0.0 | 1.0 | 0.00 | 0.03 | 0.03 | 88 | 1006.0 |
| 20260502223547 | 41 | 40 | 0.0 | 3.0 | 0.00 | 0.03 | 0.03 | 88 | 1005.9 |
| 20260502223048 | 41 | 40 | 0.0 | 3.0 | 0.00 | 0.03 | 0.03 | 88 | 1006.0 |
| 20260502222548 | 41 | 36 | 0.0 | 2.0 | 0.00 | 0.03 | 0.03 | 87 | 1006.0 |
| 20260502222047 | 41 | 303 | 0.0 | 2.0 | 0.00 | 0.03 | 0.03 | 87 | 1005.9 |
| 20260502221548 | 41 | 303 | 0.0 | 3.0 | 0.00 | 0.03 | 0.03 | 86 | 1005.9 |
| 20260502221047 | 41 | 313 | 1.0 | 3.0 | 0.00 | 0.03 | 0.03 | 86 | 1005.9 |
| 20260502220548 | 41 | 350 | 0.0 | 5.0 | 0.00 | 0.03 | 0.03 | 85 | 1005.9 |
| 20260502220116 | 41 | 297 | 1.0 | 8.0 | 0.00 | 0.03 | 0.03 | 85 | 1005.8 |
| 20260502215546 | 41 | 306 | 3.0 | 11.0 | 0.00 | 0.03 | 0.03 | 83 | 1005.9 |
| 20260502215047 | 42 | 287 | 4.0 | 11.0 | 0.00 | 0.03 | 0.03 | 82 | 1005.8 |
| 20260502214546 | 42 | 317 | 2.0 | 7.0 | 0.00 | 0.03 | 0.03 | 83 | 1005.8 |
| 20260502214045 | 42 | 300 | 3.0 | 7.0 | 0.00 | 0.03 | 0.03 | 82 | 1005.7 |
| 20260502213545 | 42 | 15 | 2.0 | 5.0 | 0.00 | 0.03 | 0.03 | 82 | 1005.7 |
| 20260502213045 | 42 | 342 | 1.0 | 5.0 | 0.00 | 0.03 | 0.03 | 82 | 1005.7 |
| 20260502212545 | 42 | 5 | 1.0 | 9.0 | 0.00 | 0.03 | 0.03 | 82 | 1005.7 |
| 20260502212048 | 42 | 313 | 3.0 | 9.0 | 0.00 | 0.03 | 0.03 | 81 | 1005.8 |
| 20260502211545 | 43 | 355 | 3.0 | 9.0 | 0.00 | 0.03 | 0.03 | 80 | 1005.8 |
| 20260502211047 | 43 | 298 | 2.0 | 9.0 | 0.00 | 0.03 | 0.03 | 81 | 1005.7 |
| 20260502210544 | 44 | 311 | 4.0 | 9.0 | 0.00 | 0.03 | 0.03 | 80 | 1005.6 |
| 20260502210047 | 44 | 330 | 4.0 | 9.0 | 0.00 | 0.03 | 0.03 | 79 | 1005.6 |
| 20260502205543 | 45 | 298 | 4.0 | 9.0 | 0.00 | 0.03 | 0.03 | 77 | 1005.5 |
| 20260502205044 | 45 | 309 | 2.0 | 9.0 | 0.00 | 0.03 | 0.03 | 79 | 1005.4 |
| 20260502204555 | 45 | 267 | 3.0 | 9.0 | 0.00 | 0.03 | 0.03 | 78 | 1005.4 |
| 20260502204044 | 45 | 278 | 3.0 | 9.0 | 0.00 | 0.03 | 0.03 | 78 | 1005.4 |
| 20260502203544 | 45 | 319 | 2.0 | 9.0 | 0.00 | 0.03 | 0.03 | 79 | 1005.4 |
| 20260502203058 | 44 | 321 | 4.0 | 9.0 | 0.00 | 0.03 | 0.03 | 77 | 1005.3 |
| 20260502202545 | 45 | 336 | 3.0 | 8.0 | 0.00 | 0.03 | 0.03 | 76 | 1005.3 |
| 20260502202044 | 45 | 326 | 3.0 | 10.0 | 0.00 | 0.03 | 0.03 | 74 | 1005.3 |
| 20260502201545 | 45 | 282 | 3.0 | 10.0 | 0.00 | 0.03 | 0.03 | 74 | 1005.2 |
| 20260502201042 | 45 | 323 | 5.0 | 10.0 | 0.00 | 0.03 | 0.03 | 72 | 1005.3 |
| 20260502200543 | 46 | 315 | 3.0 | 10.0 | 0.00 | 0.03 | 0.03 | 72 | 1005.2 |
| 20260502200143 | 46 | 319 | 3.0 | 10.0 | 0.00 | 0.03 | 0.03 | 71 | 1005.2 |
| 20260502195541 | 46 | 277 | 4.0 | 10.0 | 0.00 | 0.03 | 0.03 | 71 | 1005.3 |
| 20260502195040 | 46 | 294 | 6.0 | 10.0 | 0.00 | 0.03 | 0.03 | 70 | 1005.2 |
| 20260502194547 | 46 | 296 | 4.0 | 10.0 | 0.00 | 0.03 | 0.03 | 71 | 1005.2 |
| 20260502194042 | 46 | 306 | 4.0 | 10.0 | 0.00 | 0.03 | 0.03 | 74 | 1005.2 |
| 20260502193540 | 46 | 331 | 3.0 | 11.0 | 0.00 | 0.03 | 0.03 | 74 | 1005.2 |
| 20260502193040 | 46 | 311 | 5.0 | 11.0 | 0.00 | 0.03 | 0.03 | 73 | 1005.2 |
| 20260502192541 | 46 | 324 | 3.0 | 11.0 | 0.00 | 0.03 | 0.03 | 73 | 1005.2 |
| 20260502192041 | 46 | 296 | 5.0 | 12.0 | 0.00 | 0.03 | 0.03 | 72 | 1005.2 |
| 20260502191542 | 47 | 335 | 6.0 | 13.0 | 0.00 | 0.03 | 0.03 | 73 | 1005.2 |
| 20260502191043 | 47 | 277 | 5.0 | 13.0 | 0.00 | 0.03 | 0.03 | 75 | 1005.1 |
| 20260502190540 | 47 | 254 | 6.0 | 13.0 | 0.00 | 0.03 | 0.03 | 72 | 1005.0 |
| 20260502190039 | 48 | 329 | 6.0 | 13.0 | 0.00 | 0.03 | 0.03 | 69 | 1005.0 |
| 20260502185539 | 48 | 292 | 6.0 | 11.0 | 0.00 | 0.03 | 0.03 | 69 | 1005.0 |
| 20260502185038 | 49 | 265 | 3.0 | 10.0 | 0.00 | 0.03 | 0.03 | 64 | 1004.9 |
| 20260502184541 | 49 | 281 | 4.0 | 10.0 | 0.00 | 0.03 | 0.03 | 63 | 1004.9 |
| 20260502184038 | 49 | 290 | 1.0 | 9.0 | 0.00 | 0.03 | 0.03 | 62 | 1004.9 |